• In Belarus
  • List of Countries
  • For 7 days
  • Water Temperature
  • Satellite Maps
  • Weather Map
  • Weather Widgets
  • user-avatar
    Login

    Hourly Weather Saint-Félicien

    Today, 24 November, Friday

    Time Temperature Precipitation Wind Pressure Humidity
    00:00 -6°C° 0.2 mm 5 mps 742 mmHg 81%
    01:00 -7°C° 0.2 mm 5 mps 743 mmHg 80%
    02:00 -9°C° 0 mm 4 mps 743 mmHg 83%
    03:00 -9°C° 0 mm 3 mps 744 mmHg 85%
    04:00 -10°C° 0 mm 2 mps 745 mmHg 88%
    05:00 -9°C° 0 mm 1 mps 745 mmHg 88%
    06:00 -10°C° 0 mm 1 mps 745 mmHg 89%
    07:00 -10°C° 0 mm 1 mps 746 mmHg 89%
    08:00 -9°C° 0 mm 1 mps 745 mmHg 85%
    09:00 -8°C° 0 mm 1 mps 745 mmHg 81%
    10:00 -8°C° 0 mm 2 mps 745 mmHg 77%
    11:00 -8°C° 0.4 mm 2 mps 744 mmHg 82%
    12:00 -8°C° 0.4 mm 3 mps 743 mmHg 86%
    13:00 -9°C° 0.4 mm 4 mps 742 mmHg 90%
    14:00 -8°C° 0.4 mm 4 mps 741 mmHg 91%
    15:00 -7°C° 0.4 mm 4 mps 740 mmHg 91%
    16:00 -5°C° 0.4 mm 4 mps 739 mmHg 91%
    17:00 -3°C° 0.5 mm 4 mps 739 mmHg 90%
    18:00 -2°C° 0.5 mm 5 mps 738 mmHg 90%
    19:00 0°C° 0.5 mm 5 mps 738 mmHg 89%
    20:00 0°C° 0.9 mm 5 mps 737 mmHg 89%
    21:00 +1°C° 0.9 mm 5 mps 736 mmHg 89%
    22:00 +1°C° 0.9 mm 5 mps 736 mmHg 89%
    23:00 +1°C° 0.5 mm 5 mps 735 mmHg 90%

    Tomorrow, 25 November, Saturday

    Time Temperature Precipitation Wind Pressure Humidity
    00:00 +1°C° 0.5 mm 5 mps 735 mmHg 91%
    01:00 +2°C° 0.5 mm 5 mps 734 mmHg 91%
    02:00 +2°C° 0.3 mm 5 mps 734 mmHg 91%
    03:00 +2°C° 0.3 mm 5 mps 734 mmHg 91%
    04:00 +2°C° 0.3 mm 6 mps 733 mmHg 91%
    05:00 +2°C° 0.4 mm 5 mps 733 mmHg 91%
    06:00 +2°C° 0.4 mm 5 mps 733 mmHg 90%
    07:00 +2°C° 0.4 mm 5 mps 734 mmHg 90%
    08:00 +2°C° 0.2 mm 5 mps 734 mmHg 91%
    09:00 +2°C° 0.2 mm 5 mps 734 mmHg 91%
    10:00 +2°C° 0.2 mm 5 mps 735 mmHg 92%
    11:00 +3°C° 0.1 mm 4 mps 735 mmHg 93%
    12:00 +3°C° 0.1 mm 4 mps 735 mmHg 93%
    13:00 +3°C° 0.1 mm 3 mps 736 mmHg 94%
    14:00 +3°C° 0.1 mm 3 mps 736 mmHg 93%
    15:00 +2°C° 0.1 mm 3 mps 737 mmHg 92%
    16:00 +1°C° 0.1 mm 3 mps 737 mmHg 91%
    17:00 0°C° 0 mm 3 mps 738 mmHg 91%
    18:00 -1°C° 0 mm 2 mps 739 mmHg 90%
    19:00 -1°C° 0 mm 2 mps 740 mmHg 90%
    20:00 -2°C° 0 mm 2 mps 740 mmHg 89%
    21:00 -3°C° 0 mm 2 mps 741 mmHg 89%
    22:00 -4°C° 0 mm 2 mps 742 mmHg 89%
    23:00 -4°C° 0 mm 2 mps 742 mmHg 87%

    Day after tomorrow, 26 November, Sunday

    Time Temperature Precipitation Wind Pressure Humidity
    00:00 -5°C° 0 mm 3 mps 742 mmHg 86%
    01:00 -5°C° 0 mm 3 mps 743 mmHg 84%
    02:00 -6°C° 0 mm 3 mps 743 mmHg 84%
    03:00 -6°C° 0 mm 3 mps 743 mmHg 83%
    04:00 -7°C° 0 mm 3 mps 743 mmHg 83%
    05:00 -7°C° 0 mm 3 mps 744 mmHg 83%
    06:00 -8°C° 0 mm 3 mps 744 mmHg 83%
    07:00 -8°C° 0 mm 3 mps 744 mmHg 83%
    08:00 -8°C° 0 mm 3 mps 744 mmHg 81%
    09:00 -8°C° 0 mm 3 mps 744 mmHg 79%
    10:00 -7°C° 0 mm 3 mps 744 mmHg 77%
    11:00 -7°C° 0 mm 3 mps 744 mmHg 75%
    12:00 -6°C° 0 mm 3 mps 743 mmHg 73%
    13:00 -5°C° 0 mm 2 mps 743 mmHg 72%
    14:00 -5°C° 0 mm 2 mps 743 mmHg 75%
    15:00 -6°C° 0 mm 2 mps 743 mmHg 78%
    16:00 -6°C° 0 mm 2 mps 743 mmHg 82%
    17:00 -6°C° 0.1 mm 2 mps 743 mmHg 83%
    18:00 -6°C° 0.1 mm 2 mps 743 mmHg 85%
    19:00 -6°C° 0.1 mm 2 mps 743 mmHg 86%
    20:00 -7°C° 0 mm 2 mps 743 mmHg 87%
    21:00 -7°C° 0 mm 2 mps 743 mmHg 88%
    22:00 -8°C° 0 mm 2 mps 743 mmHg 89%
    23:00 -8°C° 0 mm 2 mps 743 mmHg 88%

    27 November, Monday

    Time Temperature Precipitation Wind Pressure Humidity
    00:00 -8°C° 0 mm 2 mps 743 mmHg 88%
    01:00 -10°C° 0 mm 3 mps 743 mmHg 87%
    02:00 -10°C° 0 mm 3 mps 743 mmHg 86%
    03:00 -10°C° 0 mm 3 mps 744 mmHg 85%
    04:00 -12°C° 0 mm 4 mps 744 mmHg 84%
    05:00 -12°C° 0 mm 4 mps 745 mmHg 82%
    06:00 -12°C° 0 mm 4 mps 745 mmHg 81%
    07:00 -12°C° 0 mm 4 mps 746 mmHg 79%
    08:00 -13°C° 0 mm 5 mps 746 mmHg 77%
    09:00 -13°C° 0 mm 5 mps 747 mmHg 74%
    10:00 -13°C° 0 mm 5 mps 747 mmHg 72%
    11:00 -12°C° 0 mm 5 mps 747 mmHg 71%
    12:00 -12°C° 0 mm 5 mps 747 mmHg 70%
    13:00 -11°C° 0 mm 4 mps 747 mmHg 69%
    14:00 -11°C° 0 mm 4 mps 748 mmHg 71%
    15:00 -12°C° 0 mm 3 mps 748 mmHg 74%
    16:00 -12°C° 0 mm 3 mps 749 mmHg 77%
    17:00 -12°C° 0 mm 2 mps 749 mmHg 79%
    18:00 -12°C° 0 mm 2 mps 750 mmHg 81%
    19:00 -12°C° 0 mm 2 mps 750 mmHg 83%
    20:00 -12°C° 0 mm 2 mps 750 mmHg 84%
    21:00 -12°C° 0 mm 2 mps 750 mmHg 84%
    22:00 -12°C° 0 mm 2 mps 749 mmHg 84%
    23:00 -12°C° 0 mm 2 mps 748 mmHg 84%

    28 November, Tuesday

    Time Temperature Precipitation Wind Pressure Humidity
    00:00 -13°C° 0 mm 3 mps 747 mmHg 83%
    01:00 -12°C° 0 mm 3 mps 747 mmHg 83%
    02:00 -12°C° 0.4 mm 4 mps 745 mmHg 86%
    03:00 -12°C° 0.4 mm 5 mps 744 mmHg 88%
    04:00 -11°C° 0.4 mm 5 mps 742 mmHg 91%
    05:00 -10°C° 1.1 mm 5 mps 741 mmHg 90%
    06:00 -7°C° 1.1 mm 5 mps 740 mmHg 89%
    07:00 -6°C° 1.1 mm 5 mps 738 mmHg 89%
    08:00 -4°C° 0.3 mm 5 mps 737 mmHg 88%
    09:00 -3°C° 0.3 mm 6 mps 736 mmHg 88%
    10:00 -1°C° 0.3 mm 6 mps 735 mmHg 87%
    11:00 +1°C° 0.3 mm 5 mps 735 mmHg 89%
    12:00 +2°C° 0.3 mm 5 mps 734 mmHg 90%
    13:00 +3°C° 0.3 mm 5 mps 734 mmHg 91%
    14:00 +2°C° 0.1 mm 5 mps 734 mmHg 91%
    15:00 +3°C° 0.1 mm 4 mps 735 mmHg 91%
    16:00 +3°C° 0.1 mm 4 mps 735 mmHg 90%
    17:00 +2°C° 0.1 mm 3 mps 736 mmHg 90%
    18:00 +1°C° 0.1 mm 3 mps 736 mmHg 89%
    19:00 +1°C° 0.1 mm 3 mps 737 mmHg 89%
    20:00 0°C° 0.1 mm 3 mps 737 mmHg 88%
    21:00 -1°C° 0.1 mm 4 mps 738 mmHg 86%
    22:00 -1°C° 0.1 mm 4 mps 738 mmHg 85%
    23:00 -4°C° 0.1 mm 5 mps 739 mmHg 82%

    29 November, Wednesday

    Time Temperature Precipitation Wind Pressure Humidity
    00:00 -7°C° 0.1 mm 5 mps 740 mmHg 79%
    01:00 -10°C° 0.1 mm 6 mps 741 mmHg 76%
    02:00 -10°C° 0 mm 5 mps 743 mmHg 77%
    03:00 -11°C° 0 mm 5 mps 744 mmHg 78%
    04:00 -12°C° 0 mm 5 mps 745 mmHg 79%
    05:00 -12°C° 0 mm 5 mps 746 mmHg 78%
    06:00 -12°C° 0 mm 5 mps 747 mmHg 78%
    07:00 -12°C° 0 mm 5 mps 748 mmHg 77%
    08:00 -12°C° 0 mm 5 mps 749 mmHg 75%
    09:00 -12°C° 0 mm 5 mps 750 mmHg 74%
    10:00 -11°C° 0 mm 6 mps 751 mmHg 72%
    11:00 -11°C° 0 mm 5 mps 752 mmHg 72%
    12:00 -11°C° 0 mm 5 mps 753 mmHg 72%
    13:00 -11°C° 0 mm 5 mps 753 mmHg 71%
    14:00 -10°C° 0 mm 4 mps 754 mmHg 74%
    15:00 -10°C° 0 mm 3 mps 755 mmHg 77%
    16:00 -12°C° 0 mm 3 mps 755 mmHg 80%
    17:00 -10°C° 0 mm 2 mps 756 mmHg 82%
    18:00 -10°C° 0 mm 2 mps 756 mmHg 84%
    19:00 -10°C° 0 mm 1 mps 757 mmHg 87%
    20:00 -12°C° 0 mm 2 mps 757 mmHg 87%
    21:00 -12°C° 0 mm 2 mps 757 mmHg 87%
    22:00 -12°C° 0 mm 2 mps 757 mmHg 87%
    23:00 -10°C° 0 mm 2 mps 756 mmHg 87%
    Show more